Terug naar catalogus

ONEWEB-0276

ActiefCommunicatiePO
NORAD 48994·PAYLOAD·🇬🇧 United Kingdom

Gelanceerd Jul 1, 2021 vanaf Vostochny Cosmodrome

Loading…

Volgende Passages (komende 24 uur)

TLE

VersSource: CelesTrak SupGP

Epoch: Sep 14, 2026, 22:42 UTC

1 48994C 21060AD  26257.94599954 -.00002073  00000+0 -54293-2 0  2574
2 48994  87.9153 210.9526 0002249  80.8069 312.0481 13.16596762    18

Volg ONEWEB-0276 in realtime met AllMySat

Download on the App Store